North Platte, NE

11:13 AM CDT on August 31, 2016 (GMT -0500)
North Platte Regional-Bird

Weather History for KLBF - November, 2012

Change the Weather History Date:

Tuesday, November 6, 2012

  Actual Average Record
Temperature  
Mean Temperature 44 °F 40 °F  
Max Temperature 62 °F 55 °F 82 °F (1980)
Min Temperature 26 °F 25 °F 2 °F (1959)
Degree Days  
Heating Degree Days 21 25  
Month to date heating degree days 125 141  
Since 1 July heating degree days 826 810  
Cooling Degree Days 0 0  
Month to date cooling degree days 0 0  
Year to date cooling degree days 1245 768  
Moisture  
Dew Point 27 °F    
Average Humidity 60    
Maximum Humidity 96    
Minimum Humidity 24    
Precipitation  
Precipitation 0.00 in 0.02 in 0.74 in (1885)
Month to date precipitation T 0.17  
Year to date precipitation 9.62 19.35  
Snow  
Snow 0.00 in 0.10 in 5.90 in (1953)
Month to date snowfall 0.0 0.7  
Since 1 July snowfall 2.2 3.0  
Since 1 September snowfall 2.2 3.0  
Snow Depth 0.00 in    
Sea Level Pressure  
Sea Level Pressure 30.17 in    
Wind  
Wind Speed 9 mph (NW)    
Max Wind Speed 25 mph    
Max Gust Speed 31 mph    
Visibility 10 miles    
Events      
T = Trace of Precipitation, MM = Missing Value Source: NWS Daily Summary

Daily Weather History Graph

Daily Weather History Graph

Search for Another Location

Airport or City:

Trip Planner

Search our weather history database for the weather conditions in past years. The results will help you decide how hot, cold, wet, or windy it might be!

Date:

Astronomy

Nov. 06, 2012 Rise Set
Actual Time 7:20 AM CST 5:31 PM CST
Civil Twilight 6:51 AM CST 6:00 PM CST
Nautical Twilight 6:18 AM CST 6:33 PM CST
Astronomical Twilight 5:46 AM CST 7:05 PM CST
Moon No Moon Rise 1:12 PM CST (11/6)
Length of Visible Light 11h 09m
Length of Day
10h 11m
Waning Gibbous, 53% of the Moon is Illuminated
Nov 6
Waning Gibbous
Nov 6
Last Quarter
Nov 13
New
Nov 20
First Quarter
Nov 28
Full

Hourly Weather History & Observations

Time (CST) Temp. Windchill Dew Point Humidity Pressure Visibility Wind Dir Wind Speed Gust Speed Precip Events Conditions
12:53 AM 39.9 °F 35.8 °F 30.9 °F 70% 30.03 in 10.0 mi West 5.8 mph - N/A   Mostly Cloudy
1:53 AM 35.1 °F 28.6 °F 28.9 °F 78% 30.06 in 10.0 mi WNW 8.1 mph - N/A   Partly Cloudy
2:53 AM 34.0 °F 28.0 °F 28.9 °F 82% 30.08 in 10.0 mi West 6.9 mph - N/A   Clear
3:53 AM 33.1 °F 26.1 °F 28.9 °F 85% 30.09 in 10.0 mi WNW 8.1 mph - N/A   Clear
4:53 AM 30.9 °F 23.5 °F 27.0 °F 85% 30.11 in 10.0 mi West 8.1 mph - N/A   Clear
5:53 AM 36.0 °F 29.6 °F 33.1 °F 89% 30.16 in 10.0 mi West 8.1 mph - N/A   Clear
6:53 AM 35.1 °F 32.2 °F 32.0 °F 89% 30.19 in 10.0 mi West 3.5 mph - N/A   Clear
7:53 AM 34.0 °F 27.2 °F 32.0 °F 92% 30.24 in 10.0 mi WNW 8.1 mph - N/A   Clear
8:53 AM 46.0 °F 41.9 °F 37.9 °F 73% 30.23 in 10.0 mi NW 8.1 mph - N/A   Clear
9:53 AM 52.0 °F - 32.0 °F 47% 30.22 in 10.0 mi NNW 12.7 mph 20.7 mph N/A   Clear
10:53 AM 55.0 °F - 26.1 °F 33% 30.22 in 10.0 mi NNW 19.6 mph 26.5 mph N/A   Clear
11:53 AM 57.9 °F - 21.9 °F 25% 30.19 in 10.0 mi North 17.3 mph - N/A   Clear
12:53 PM 60.1 °F - 24.1 °F 25% 30.17 in 10.0 mi NNW 19.6 mph 27.6 mph N/A   Clear
1:53 PM 61.0 °F - 27.0 °F 27% 30.15 in 10.0 mi NW 18.4 mph 28.8 mph N/A   Clear
2:53 PM 61.0 °F - 28.0 °F 29% 30.15 in 10.0 mi NW 19.6 mph 25.3 mph N/A   Clear
3:53 PM 60.1 °F - 28.0 °F 30% 30.15 in 10.0 mi NW 17.3 mph 23.0 mph N/A   Clear
4:53 PM 57.9 °F - 28.0 °F 32% 30.16 in 10.0 mi NW 13.8 mph - N/A   Clear
5:53 PM 46.9 °F - 26.1 °F 44% 30.19 in 10.0 mi North 5.8 mph - N/A   Clear
6:53 PM 42.1 °F 39.2 °F 21.9 °F 45% 30.20 in 10.0 mi NE 4.6 mph - N/A   Clear
7:53 PM 39.0 °F - 24.1 °F 55% 30.22 in 10.0 mi Calm Calm - N/A   Clear
8:53 PM 32.0 °F 28.7 °F 21.9 °F 66% 30.20 in 10.0 mi ESE 3.5 mph - N/A   Clear
9:53 PM 30.9 °F - 21.9 °F 69% 30.19 in 10.0 mi Calm Calm - N/A   Clear
10:53 PM 28.9 °F - 21.0 °F 72% 30.20 in 10.0 mi Calm Calm - N/A   Clear
11:53 PM 30.0 °F 26.5 °F 21.0 °F 69% 30.20 in 10.0 mi NW 3.5 mph - N/A   Clear